Location: Potawatomi Wildlife Park
(41.2308°N, 86.1050°W)
Time: 23:37:48
(UTC-04:00)

Daily predictions for brighter satellites

Satellite Brightness Start Highest point End
(mag) Time Altitude Azimuth Time Altitude Azimuth Time Altitude Azimuth
ATLAS 3B R/B 3.7 19:47:38 10° SW 19:55:07 57° NW 20:02:24 10° NNE
Cosmos 1680 Rocket 4.2 19:52:26 10° SSW 19:57:42 62° WNW 20:03:00 10° NNE
DMSP B5D1-3 4.5 19:54:30 10° NNE 19:59:36 71° ESE 20:04:41 10° S
Helios 1B rocket 3.5 19:57:07 10° NE 20:00:28 23° E 20:03:47 10° SSE
SeaSat 1 4.2 20:02:08 10° E 20:03:53 12° ESE 20:05:37 10° ESE
Resurs 01 Rocket 2.2 20:05:22 10° SE 20:09:25 36° ENE 20:13:30 10° N
NOSS 3-2 (A) 3.7 20:04:47 10° S 20:10:30 46° ESE 20:16:41 10° NE
SAR-Lupe-4 3.5 20:07:41 10° SSE 20:11:14 84° ENE 20:14:50 10° NNW
Okean 3 Rocket 3.6 20:06:47 10° N 20:11:18 63° E 20:15:48 10° SSE
Cosmos 2333 Rocket 2.9 20:05:39 10° SW 20:11:21 62° WNW 20:17:05 10° NNE
Cosmos 292 Rocket 3.9 20:06:51 10° SSW 20:11:39 85° WNW 20:16:31 10° NNE
Resurs 1-3 4.4 20:09:40 10° SE 20:13:30 31° ENE 20:17:22 10° N
USA 238 DEB 4.0 20:08:19 10° SW 20:15:22 75° NW 20:22:26 10° NNE
USA 238 4.0 20:08:25 10° SW 20:15:28 76° NW 20:22:33 10° NNE
CZ-4B DEB 4.5 20:15:35 11° ESE 20:17:38 17° ENE 20:19:49 10° NNE
Cosmos 1484 Rocket 3.8 20:14:56 10° S 20:18:38 50° W 20:22:25 10° NNW
Spot 1 4.4 20:14:56 10° SSE 20:19:38 57° ENE 20:24:06 10° N
Atlas Centaur 2 4.1 20:13:56 10° WSW 20:21:32 36° S 20:28:34 10° SE
ATLAS CENTAUR R/B 1.4 20:19:11 10° NW 20:23:26 81° WSW 20:27:19 10° SSE
BREEZE-M DEB (TANK) 4.4 20:20:51 10° WNW 20:24:16 53° SSW 20:34:55 10° SE
Cosmos 1072 Rocket 4.4 20:22:37 10° S 20:28:39 65° E 20:34:41 10° NNE
ALOS 2.9 20:27:03 10° SE 20:31:15 34° ENE 20:35:28 10° N
In-Cosmos 22 4.5 20:26:22 10° N 20:31:59 49° ENE 20:37:31 10° SSE
Cosmos 1437 3.6 20:31:25 10° NNW 20:34:37 54° W 20:37:48 10° S
Cosmos 1766 3.3 20:34:14 10° S 20:38:11 89° W 20:42:11 10° N
FREGAT/IRIS 3.2 20:35:51 10° S 20:38:55 61° W 20:42:00 10° NNW
Spot 2 Rocket 3.4 20:34:05 10° SSE 20:39:06 78° ENE 20:44:09 10° N
Cosmos 2237 Rocket 3.5 20:34:27 10° SW 20:39:51 43° WNW 20:45:16 10° NNE
NOSS 3-3 (A) 4.5 20:33:58 10° NNW 20:41:23 68° NE 20:48:48 12° SE
Cosmos 2056 Rocket 3.9 20:36:08 10° NNW 20:41:33 72° WSW 20:46:56 10° S
NOAA 12 4.5 20:36:36 10° S 20:41:49 68° WSW 20:47:05 10° NNW
OAO 3 Rocket 4.0 20:39:08 10° SW 20:43:29 35° S 20:46:05 21° ESE
Helios 1A 2.9 20:43:01 10° SSE 20:47:11 83° ENE 20:51:24 10° NNW
NOSS 3-2 (C) 3.4 20:41:23 10° SSW 20:47:22 68° ESE 20:53:54 10° NE
CZ-4C R/B 3.5 20:43:46 10° WSW 20:48:49 40° NW 20:54:31 10° NNE
CENTAUR R/B 4.0 20:47:16 10° SSE 20:48:51 15° SE 20:48:51 15° SE
ATLAS 5 CENTAUR R/B 1.9 20:46:57 10° SSW 20:51:35 55° ESE 20:56:35 10° NE
ASTEX 1 3.8 20:47:32 10° NNE 20:52:09 40° E 20:56:43 10° SSE
CZ-2D R/B 3.6 20:52:08 24° SE 20:54:04 43° ENE 20:57:46 10° N
Cosmos 1953 2.2 20:50:41 10° S 20:54:37 62° E 20:58:34 10° NNE
SL-16 R/B 2.5 20:52:39 10° SSW 20:58:19 69° WNW 21:04:01 10° NNE
Meteor 2-12 Rocket 4.4 20:52:34 10° S 20:58:38 65° E 21:04:43 10° NNE
Aureole 2 Rocket 3.8 20:56:04 10° SW 21:00:21 53° WNW 21:04:36 10° N
Cosmos 2034 Rocket 3.9 20:56:41 10° S 21:02:55 83° E 21:09:16 10° N
Cosmos 1464 Rocket 4.3 20:59:56 10° SSW 21:06:10 70° W 21:12:23 10° N
Cosmos 1766 Rocket 3.7 21:02:31 10° N 21:06:55 76° W 21:11:15 10° S
Cosmos 1805 3.3 21:07:44 10° S 21:11:40 81° W 21:15:37 10° N
H-2A R/B 4.5 21:14:39 10° NE 21:14:39 10° NE 21:14:51 10° NE
H-2A R/B 2.6 21:12:11 34° SSE 21:13:46 75° ENE 21:17:41 10° N
Cosmos 724 4.2 21:08:14 10° SSW 21:14:03 66° ESE 21:20:04 10° NE
Meteor 1-29 4.1 21:13:24 10° N 21:16:47 45° WNW 21:20:08 10° SSW
SL-8 R/B 4.5 21:15:28 10° SSW 21:19:07 33° SSE 21:19:07 33° SSE
USA 215 3.7 21:16:41 10° NE 21:23:06 60° NW 21:29:29 10° WSW
Cosmos 1544 3.2 21:23:34 10° SSW 21:27:16 76° W 21:31:03 10° N
Cosmos 1346 4.3 21:25:05 10° NNW 21:27:01 36° NNW 21:27:01 36° NNW
FENGYUN 3A 4.0 21:25:57 10° S 21:31:16 66° WSW 21:36:39 10° NNW
Cosmos 1470 4.5 21:34:28 22° NNE 21:34:28 22° NNE 21:35:59 10° NNE
Cosmos-2242 3.8 21:28:28 10° SSW 21:32:44 53° W 21:37:02 10° N
ERS-1 Rocket 3.4 21:34:40 44° ENE 21:34:40 44° ENE 21:39:04 10° N
Cosmos 1452 Rocket 4.2 21:33:12 10° NNW 21:38:18 52° WSW 21:41:52 19° S
Cosmos 1842 Rocket 3.5 21:39:27 72° NNE 21:39:27 72° NNE 21:43:25 10° N
Cosmos 1500 Rocket 3.4 21:37:15 10° N 21:41:42 88° E 21:41:43 88° ESE
SeaSat 1 2.4 21:36:58 10° NNE 21:41:57 86° WNW 21:46:53 10° SSW
Cosmos 2369 Rocket 2.5 21:38:18 10° NNW 21:43:36 46° NE 21:43:36 46° NE
Cosmos 1603 3.8 21:39:38 10° SSW 21:45:21 75° WNW 21:51:08 10° NNE
Resurs 01 Rocket 4.1 21:42:37 10° SW 21:45:59 21° W 21:49:22 10° NW
Cosmos 839 Rocket 4.4 21:40:34 10° NNW 21:48:15 54° NE 21:49:20 50° E
Cosmos 2151 4.5 21:49:21 10° N 21:51:24 27° N 21:51:24 27° N
Cosmos 1943 Rocket 3.6 21:50:24 10° N 21:53:53 24° NNE 21:53:53 24° NNE
Cosmos 1420 Rocket 4.5 21:57:11 10° NNW 22:02:22 58° WSW 22:03:19 50° SW
Cosmos 1674 4.4 22:04:34 10° NNW 22:07:21 33° WNW 22:07:21 33° WNW
ALOS 4.4 22:04:58 10° SSW 22:08:44 24° W 22:12:30 10° NW
Atlas Centaur 2 4.4 22:04:27 10° WSW 22:10:13 21° SSW 22:11:38 20° SSW
Cosmos 1655 Rocket 4.0 22:07:04 10° N 22:12:38 68° NNE 22:12:38 68° NNE
GP-B 4.3 22:13:07 10° N 22:16:39 41° NW 22:16:39 41° NW
Envisat 3.9 22:30:15 44° NW 22:30:15 44° NW 22:33:52 10° NNW
ATLAS 5 CENTAUR R/B 4.0 22:32:40 10° W 22:36:39 24° NW 22:40:55 10° NNE
Cosmos 2026 Rocket 4.4 22:33:47 10° NNW 22:39:13 59° WNW 22:39:13 59° WNW
CENTAUR R/B 4.3 22:34:52 10° SW 22:47:41 11° NNE 22:47:49 10° NNE
Cosmos 2369 Rocket 4.4 23:22:56 10° NW 23:25:24 20° WNW 23:25:24 20° WNW
Cosmos 1943 Rocket 4.5 23:33:43 10° NW 23:35:24 19° NW 23:35:24 19° NW
